User: anonymous   Login
Location: Unspecified
(0.0000°N, 0.0000°E)
Time: 18:45:35
(UTC+00:00)
Language:

FORMOSAT 3E - Orbit

View from above orbital plane
View from above orbital plane
View from above satellite
View from above satellite

Ground track
Ground track

The orbit data is extracted from the following two-line orbital elements,

1 29051U 06011E   19077.09695798  .00000062  00000-0  40088-4 0  9994
2 29051  72.0053 306.8357 0068342 354.3097   5.7254 14.28729357676866
Epoch (UTC): 18 March 2019 02:19:37
Eccentricity: 0.0068342
inclination: 72.0053°
perigee height: 747 km
apogee height: 845 km
right ascension of ascending node: 306.8357°
argument of perigee: 354.3097°
revolutions per day: 14.28729357
mean anomaly at epoch: 5.7254°
orbit number at epoch: 67686

The dashed part of the orbit path shows where the satellite is in the earth's shadow,  

DLR